Location: ?????????
(53.2086°N, 54.0693°E)
Time: 22:01:38
(UTC+00:00)

Cosmos 2322 Rocket - Pass Details

Date: 08 December 2019
Orbit: 831 x 852 km, 71.0° (Epoch: 25 January)

Event Time Altitude Azimuth Distance (km) Brightness Sun altitude
Rises 12:58:49 0° 225° (SW) 3,371 7.1 -7.3°
Reaches altitude 10° 13:01:18 10° 229° (SW) 2,443 6.2 -7.7°
Maximum altitude 13:06:48 56° 308° (NW) 990 2.8 -8.4°
Drops below altitude 10° 13:12:23 10° 27° (NNE) 2,470 4.2 -9.1°
Enters shadow 13:13:26 - 29° (NNE) 2,856 4.5 -9.3°
